Regional Weather Roundup
Issued by NWS

Home | Current Version | Previous Version | Text Only | Print | Product List | Glossary On
Versions: 1 2 3 4 5 6 7 8 9 10 11 12 13 14 15 16 17 18 19 20 21 22 23 24 25 26 27 28 29 30 31 32 33 34 35 36 37 38 39 40 41 42 43 44 45 46 47 48 49 50
000
ASUS42 KTBW 051017
RWRFL
FLORIDA REGIONAL WEATHER ROUNDUP
NATIONAL WEATHER SERVICE TAMPA BAY RUSKIN FL
500 AM EST MON DEC 05 2016

NOTE: "FAIR" INDICATES FEW OR NO CLOUDS BELOW 12,000 FEET WITH NO
SIGNIFICANT WEATHER AND/OR OBSTRUCTIONS TO VISIBILITY.

FLZ001>010-012>015-112-114-115-051100-
PANHANDLE FLORIDA

CITY           SKY/WX    TMP DP  RH WIND       PRES   REMARKS
PENSACOLA      CLOUDY    65  64  97 E7        29.85F
PENSACOLA NAS  CLEAR     66  65  96 E6        29.85F
MILTON NAS     CLOUDY    63  63 100 N3        29.89
CRESTVIEW      MOCLDY    63  62  97 CALM      29.89F
DUKE FIELD     FAIR      64  63  96 CALM      29.87F
VALPARAISO     MOCLDY    65  64  96 SE5       29.87F
MARY ESTHER    MOCLDY    67  66  98 SE8       29.85F
TRI COUNTY     CLOUDY    65  65 100 E5        29.90S
PANAMA CITY    LGT RAIN  66  65  96 SE3       29.90F
TYNDALL AFB    LGT RAIN  67  66  97 E5        29.92F
APALACHICOLA   CLOUDY    71  71 100 S8        29.92F

STATION/POSITION SKY/WX   TEMP    WIND        PRES    WAVE   SWELL
                          AIR SEA DIR/SP/G            HT/PER HT/PER
                          (F)     (DEG/KT/KT) (MB)    (FT/S) (FT/S)
30.1N   87.6W              70 69  130/ 10/ 12 1010.5F   4/ 7   3/ 7
29.2N   88.2W              74 75  120/ 16/ 19 1010.5F
28.8N   86.0W              75 75              1012.6F   5/ 7   3/ 7
PANAMA CITY BEAC           67 68  110/  6/  8 1012.9F
TOWER C                    73     190/ 14/ 15 1013.9F
28.5N   84.5W              76 75  170/ 12/ 14 1013.6F   4/ 6   3/ 6

$$
FLZ011-016>038-118-127-128-134-139-239-051100-
NORTH FLORIDA

CITY           SKY/WX    TMP DP  RH WIND       PRES   REMARKS
MARIANNA       CLOUDY    67  67 100 SE6       29.90S FOG
TALLAHASSEE    LGT RAIN  69  68  96 SE5       29.94F
PERRY          CLOUDY    73  69  90 S7        29.96F
CROSS CITY     PTCLDY    66  64  94 S3        29.97S
LAKE CITY      MOCLDY    64  64 100 S6        29.97S
GAINESVILLE    PTCLDY    62  60  93 CALM      29.98F FOG
WILLISTON      CLEAR     66  64  94 SE3       29.99S FOG
PALATKA        FAIR      66  66 100 CALM      30.00S
MAYPORT NAS    PTCLDY    67  65  93 S7        29.98F
JACKSONVILLE   CLEAR     66  65  96 S7        29.97F
JAX NAS        MOCLDY    68  65  90 S5        29.99F
FERNANDINA BEA FAIR      70  66  88 S6        29.97S
ST AUGUSTINE   CLEAR     68  65  90 S5        30.00F

STATION/POSITION SKY/WX   TEMP    WIND        PRES    WAVE   SWELL
                          AIR SEA DIR/SP/G            HT/PER HT/PER
                          (F)     (DEG/KT/KT) (MB)    (FT/S) (FT/S)
SHELL POINT      NOT AVBL
KEATON BEACH               68     160/ 12/ 15 1014.1F
CEDAR KEY                  67     170/  7/  9 1015.3S
FERNANDINA                 67 67  150/  3/  5 1015.0F
30.7N   81.3W                 65                N/A     3/ 6
MAYPORT                    68 67  200/  4/  7 1015.2F
31.4N   80.9W              67 65  180/ 14/ 16 1014.1F   4/ 6   2/ 8
ST AUGUSTINE               69 68  210/  5/  6 1016.4S

$$
FLZ040-043>046-052-053-057-058-063-144-051100-
INTERIOR CENTRAL FLORIDA

CITY           SKY/WX    TMP DP  RH WIND       PRES   REMARKS
OCALA          CLEAR     64  63  94 S6        29.99S
THE VILLAGES     N/A     66  66 100 CALM      29.90S
LEESBURG       CLEAR     66  65  96 SE5       30.00F
SANFORD        CLEAR     66  65  96 S7        30.00F
ORLANDO EXEC   CLEAR     64  63  96 SE3       30.00F FOG
ORLANDO INTL   FOG       65  64  97 S3        30.01S VSB 1
KISSIMMEE      CLEAR     66  66 100 S5        30.01F FOG
WINTER HAVEN   CLEAR     69  66  90 SE3       30.01F
LAKELAND       CLEAR     68  68 100 SE8       30.00F
BARTOW         FOG       63 N/A N/A CALM      30.01F VSB 1/4
OKEECHOBEE       N/A     63  63 100 CALM      30.01F FOG

$$
FLZ041-047-054-059-064-141-147-051100-
EAST CENTRAL FLORIDA

CITY           SKY/WX    TMP DP  RH WIND       PRES   REMARKS
DAYTONA BEACH  CLEAR     68  68 100 S6        29.99F
DELAND         CLEAR     66  66 100 S7        29.99F
JFK SPACE CTR  CLEAR     64  64 100 S5        30.00F
CAPE CANAVERAL FOG       66  65  97 S3        30.00S VSB 1/2
PATRICK AFB    CLEAR     70  70 100 S3        30.00F
MELBOURNE      CLEAR     69  68  96 S5        30.00F
VERO BEACH     CLEAR     64  64 100 CALM      30.01F
FT PIERCE      CLEAR     64  64 100 CALM      30.01S FOG
STUART         CLEAR     72  70  94 CALM      30.02F

STATION/POSITION SKY/WX   TEMP    WIND        PRES    WAVE   SWELL
                          AIR SEA DIR/SP/G            HT/PER HT/PER
                          (F)     (DEG/KT/KT) (MB)    (FT/S) (FT/S)
TRIDENT PIER               70 72  160/  4/  5 1015.8F
28.4N   80.5W                 71                N/A     3/ 5

$$
FLZ050-056-061-142-242-148-248-149-249-151-251-155-255-
160-260-051100-
WEST CENTRAL FLORIDA

CITY           SKY/WX    TMP DP  RH WIND       PRES   REMARKS
CRYSTAL RIVER  FAIR      61  61 100 CALM      29.98F
INVERNESS      FOG       63  63 100 CALM      30.00S VSB<1/4
BROOKSVILLE      N/A    N/A N/A N/A MISG        N/A
CLEARWATER AIR FAIR      68  68 100 SE5       29.98S
ST PETE CLEARW CLEAR     69  67  93 SE6       29.99S
TAMPA INTL     CLEAR     71  68  90 SE6       29.99F
TAMPA EXEC     CLEAR     70  68  94 S3        30.00F
PLANT CITY     CLEAR     70  70 100 SE5       30.01F
MACDILL AFB    CLEAR     68  68 100 SE7       29.99F
PETER O KNIGHT CLEAR     72  70  94 SE3       29.99F
ST PETERSBURG  PTCLDY    68  67  96 SE5       29.97F
SARASOTA       CLEAR     67  65  93 E6        29.97F
VENICE         FAIR      68  68 100 E7        29.99S

STATION/POSITION SKY/WX   TEMP    WIND        PRES    WAVE   SWELL
                          AIR SEA DIR/SP/G            HT/PER HT/PER
                          (F)     (DEG/KT/KT) (MB)    (FT/S) (FT/S)
CLEARWATER BEACH           70 69  120/  7/ 10 1015.4F
MIDDLE TAMPA BAY           68     120/  6/  7 1015.7F
VENICE                     70 71   70/  5/  7 1015.3F

$$
FLZ066-069-070-075>078-162-262-165-265-051100-
SOUTHWEST FLORIDA AND KEYS

CITY           SKY/WX    TMP DP  RH WIND       PRES   REMARKS
PUNTA GORDA    CLEAR     66  65  96 E5        30.00F FOG
FT MYERS       PTCLDY    69  67  93 E3        29.99S
SOUTHWEST INTL PTCLDY    68  66  93 E5        29.99S
NAPLES         PTCLDY    72  70  93 SE6       29.98S
MARCO ISLAND   PTCLDY    70  68  94 E5        29.99S
MARATHON       MOCLDY    80  72  76 SE9G20    29.98S
KEY WEST NAS   CLEAR     77  72  84 SE13      29.97S
KEY WEST INTL  CLEAR     78  75  90 SE13      29.98R

STATION/POSITION SKY/WX   TEMP    WIND        PRES    WAVE   SWELL
                          AIR SEA DIR/SP/G            HT/PER HT/PER
                          (F)     (DEG/KT/KT) (MB)    (FT/S) (FT/S)
NAPLES                        72              1015.2S
26.0N   85.6W              77 77  100/ 12/ 14 1012.8R   5/ 8   5/ 8
DRY TORTUGAS               78     130/ 14/ 15 1014.2F
SAND KEY                   78     140/ 14/ 16 1015.5R
LONG KEY                   78 77  130/ 14/ 16 1015.5F
MOLASSES REEF              78 79  130/ 17/ 20 1015.8F

$$
FLZ067-068-071>074-168-172>174-051100-
SOUTHEAST FLORIDA

CITY           SKY/WX    TMP DP  RH WIND       PRES   REMARKS
W PALM BEACH   PTCLDY    75  70  84 SE9       30.01F
FT LAUDER-EXEC PTCLDY    76  71  85 SE7       30.00S
FT LAUDERDALE  CLOUDY    77  72  84 SE12      29.99S
POMPANO BEACH  MOCLDY    77  72  84 SE13      30.00S
PEMBROKE PINES PTCLDY    76  71  85 SE7       30.01S
OPA LOCKA      CLEAR    N/A N/A N/A SE8       30.01R
MIAMI          PTCLDY    75  72  90 SE10      30.00S
WEST KENDALL   CLEAR     76  71  85 SE8       30.00S
HOMESTEAD      PTCLDY    76  74  95 E7        29.99S

STATION/POSITION SKY/WX   TEMP    WIND        PRES    WAVE   SWELL
                          AIR SEA DIR/SP/G            HT/PER HT/PER
                          (F)     (DEG/KT/KT) (MB)    (FT/S) (FT/S)
PORT EVERGLADES            78     140/ 10/ 16 1015.8F
VIRGINIA KEY               77 82  130/ 10/ 15 1016.3F
LAKE WORTH                 78 78  150/ 14/ 18 1015.8F
FOWEY ROCKS                78 76  120/ 21/ 21 1016.3F

$$




USA.gov is the U.S. government's official web portal to all federal, state and local government web resources and services.